Back to catalog

SL-12 DEB

LostHEO
NORAD 35307·DEBRIS·🇷🇺 Russia

Launched Apr 4, 1991 from Baikonur Cosmodrome

Loading…

Next Passes (next 24 hours)

TLE

StaleSource: Space-Track

Epoch: Jun 24, 2011, 01:42 UTC

1 35307U 91025AG  11175.07150852  .00003478  00000-0  15834-1 0  9992
2 35307  65.1213 203.4950 5481019 341.4343   8.4239  4.52056668 36581

Track SL-12 DEB in real time with AllMySat

Download on the App Store